Джон Маршалл

США     34°12′36″N   117°18′10″W
темп.,
°C
ветер,
м/с
пор.,
м/с
влажн.,
%
обл.,
%
осадки,
мм/ч
давл.,
гПа
погр.,
м
19 апреля, пн
пн1923:00+12ссв33100 0.0 101928
02:00+12ссв3390 0.0 101822
05:00+11ссв33150 0.0 101825
08:00+17ссв22190 0.0 1018186
11:00+24зюз2290 0.0 10161953
14:00+25юз55882 0.0 10152426
17:00+23юз44140 0.0 10131363
20:00+15ююв32270 0.0 101581
20 апреля, вт
вт2023:00+13в22280 0.0 101516
02:00+12вюв22250 0.0 101418
05:00+11вюв22280 0.0 101318
08:00+16ююв23220 0.0 1013241
11:00+21ююз55140 0.0 1012937
14:00+23ююз67150 0.0 10101380
17:00+21ююз792483 0.0 10081290
20:00+11ю45500 0.0 1011163
21 апреля, ср
ср2123:00+8ююв34745 0.0 1012125
02:00+6ююв459796 0.0 1012213
05:00+6ю5692100 0.0 1011446
08:00+6ююв448053 0.0 1012525
11:00+10ю446247 0.1 1012707
14:00+13ю555214 0.0 1011857
17:00+12ю455816 0.0 1010850
20:00+8ю348079 0.0 1011506
22 апреля, чт
чт2223:00+7ю338785 0.0 1013474
02:00+6ю238987 0.0 1013370
05:00+5ю229252 0.1 1012221
08:00+7ююз228677 0.0 1013342
11:00+13юз326020 0.0 1012751
14:00+18ююз434210 0.0 10101364
17:00+16ююз44464 0.0 1009910
20:00+9ю33839 0.0 1013104
23 апреля, пт
пт2323:00+8ю228742 0.0 1014219
02:00+7ю238649 0.0 1014255
05:00+7ююв228648 0.0 1015246
08:00+9ююз227245 0.0 1015277
11:00+15ююз44504 0.0 1014480
14:00+18ююз553664 0.0 1013767
17:00+16ю45455 0.0 1013703
20:00+10ю34720 0.0 1015130